GFSFLT2_925_thetae_309.txt.gz
Theta_e
281 281 281 281 282 282 283 283 284 284 284 285 286 286 287 287 287 288 288 289 290 291 292 293 294 295 297
281 282 281 281 282 282 283 283 283 284 284 284 286 287 287 287 287 287 287 288 289 290 290 291 293 295 296
281 281 282 282 282 282 283 283 283 284 284 284 285 286 286 287 287 287 287 287 287 287 288 290 291 292 294
281 282 282 283 283 283 283 284 284 283 283 284 284 285 285 286 286 286 285 286 287 288 289 290 290 291 293
282 282 283 284 284 284 284 284 284 284 284 284 284 284 284 284 285 285 285 285 286 286 287 287 288 290 291
283 284 284 284 284 284 284 284 285 284 284 284 284 284 284 284 285 285 285 286 286 286 286 287 287 288 289
284 285 285 284 284 283 283 284 284 285 285 285 285 285 285 284 284 285 285 286 286 287 287 287 287 287 288
283 283 283 283 283 283 283 284 284 285 285 285 285 285 285 284 284 285 285 286 286 286 286 287 287 287 288
284 284 284 284 284 285 285 285 285 285 285 285 285 285 285 285 284 284 285 285 286 286 287 287 287 287 288
282 282 283 282 282 283 282 283 283 283 283 283 284 285 285 285 285 285 284 285 285 286 286 287 287 287 287
281 281 280 281 281 281 281 281 282 282 284 283 284 285 285 285 285 285 284 284 285 285 285 285 285 285 286
280 280 280 280 280 280 280 281 281 281 280 280 281 283 283 285 285 285 285 285 284 284 284 284 285 286 287
278 278 278 278 279 279 279 279 279 280 280 281 281 282 283 284 284 285 285 285 284 284 284 284 284 285 286
278 278 278 278 279 279 279 279 279 280 280 280 281 281 282 283 284 284 284 284 284 284 284 284 285 285 286
277 277 278 278 278 279 279 279 279 280 280 280 280 281 281 282 283 284 285 284 284 284 285 285 285 286 287
277 277 278 278 278 278 279 279 280 280 280 280 280 281 281 282 282 283 284 285 285 285 286 286 286 287 287
275 276 276 277 278 278 278 278 279 279 279 280 280 280 282 283 282 282 282 284 284 285 287 287 287 286 286

GFSFLT2_925_thetae_315.txt.gz
Theta_e
284 284 284 284 285 285 285 285 285 286 287 287 287 288 288 289 290 290 291 291 291 291 292 292 293 293 294
283 283 283 284 284 284 285 285 285 286 286 287 287 288 288 289 290 290 290 290 290 290 290 290 290 291 292
283 283 283 283 284 285 285 285 286 286 286 286 287 287 287 288 288 289 289 289 290 290 289 289 289 290 291
282 282 283 283 284 285 285 285 286 286 286 286 287 287 287 287 288 288 288 289 289 289 289 289 289 289 290
283 283 283 284 284 285 285 286 286 286 286 286 286 286 286 287 287 287 287 288 288 288 289 289 289 289 290
284 284 284 284 285 285 286 286 286 286 285 285 286 286 287 287 287 287 288 288 288 288 288 288 289 289 290
285 285 285 284 285 286 286 286 285 285 284 285 285 286 286 286 286 287 287 288 288 288 288 288 288 289 289
282 282 283 283 283 284 284 284 284 284 285 285 285 286 286 286 286 287 287 287 287 287 288 288 288 288 289
283 283 284 284 284 284 285 284 285 285 285 286 286 285 284 284 284 284 285 286 287 287 288 288 288 288 288
283 284 284 283 284 284 284 284 284 284 284 284 284 283 283 283 283 283 286 285 286 288 288 287 287 287 288
283 283 282 282 282 282 283 283 283 283 282 282 282 282 282 283 283 284 283 284 285 285 286 286 287 287 287
281 281 281 281 281 282 282 282 282 282 282 281 281 281 282 282 282 282 282 283 283 284 284 285 286 287 287
280 280 280 279 279 279 279 279 279 279 280 280 280 281 281 281 281 282 282 283 283 283 283 284 285 286 286
278 278 278 278 278 279 279 279 279 280 280 280 280 280 280 281 281 282 282 282 283 283 283 284 285 285 285
278 278 278 278 278 278 279 279 280 280 280 280 280 280 281 281 281 281 282 282 282 283 283 283 284 284 285
278 278 278 278 278 278 278 278 278 279 279 280 280 280 281 281 281 282 282 282 282 283 283 284 283 283 284
277 277 277 277 277 277 277 278 278 278 279 279 280 280 281 281 281 281 282 282 282 283 283 283 283 283 282

GFSFLT2_925_thetae_321.txt.gz
Theta_e
283 283 283 283 283 283 283 284 284 285 286 287 288 289 289 289 290 290 291 291 292 292 293 293 293 293 294
282 282 282 282 282 282 283 283 284 285 286 287 288 289 289 289 289 289 290 291 291 291 291 292 292 292 292
282 282 282 282 281 282 283 283 284 284 285 286 287 287 288 288 289 289 289 290 290 290 291 291 291 292 292
282 282 282 282 282 282 283 283 284 284 285 286 286 286 287 286 287 287 288 288 289 289 289 290 290 291 291
281 281 281 282 282 282 283 283 284 284 284 285 285 285 285 284 284 284 286 288 288 289 289 290 290 290 290
281 281 281 282 282 283 284 283 284 284 285 285 285 285 284 284 283 285 286 287 287 288 288 290 290 290 290
282 282 282 282 282 283 282 282 282 282 283 283 283 283 283 283 284 285 286 287 288 288 288 289 289 289 289
281 281 281 281 281 281 282 282 282 282 283 283 283 283 284 284 285 285 285 285 285 285 285 286 286 287 287
282 282 283 283 284 284 284 283 283 284 283 284 284 284 284 283 283 283 284 284 284 285 285 286 287 287 287
281 282 282 282 283 283 283 283 282 281 282 283 283 283 282 282 282 282 282 282 282 281 282 284 285 285 284
282 283 282 282 281 280 280 281 281 281 281 282 282 282 282 282 282 281 281 281 280 280 281 282 282 283 283
283 282 281 280 280 279 279 280 280 279 279 279 279 280 280 279 280 280 280 279 279 279 280 280 281 282 283
282 281 280 279 278 278 278 278 278 278 278 278 278 278 278 278 278 279 279 279 279 279 279 280 280 281 281
280 280 279 278 278 278 277 277 277 277 277 277 277 278 279 278 278 279 279 279 279 279 280 280 280 280 281
280 279 279 278 278 278 277 277 277 277 277 277 277 277 278 278 278 279 279 279 279 280 280 280 280 280 281
279 279 278 278 278 277 277 277 277 277 277 277 277 277 277 277 278 278 279 279 279 280 280 280 280 280 281
278 278 277 277 277 277 277 277 277 277 276 276 276 276 276 276 277 277 278 278 279 280 280 280 280 280 280

GFSFLT2_925_thetae_324.txt.gz
Theta_e
283 283 282 282 282 282 282 283 283 284 286 287 288 289 289 290 290 290 291 291 292 292 293 293 294 294 294
282 282 282 282 282 282 282 282 283 284 285 287 288 289 289 289 289 289 290 290 290 291 291 292 292 293 293
282 282 282 282 282 282 282 283 283 283 284 286 287 288 288 288 289 288 288 289 290 290 290 291 291 292 292
281 281 281 281 281 282 282 283 283 284 284 284 286 286 286 286 286 286 285 287 288 289 289 290 290 290 291
281 281 281 281 281 282 282 283 283 283 283 285 285 285 285 285 284 284 285 286 287 288 288 289 290 290 290
281 281 281 281 281 282 282 283 283 282 282 282 282 282 283 283 283 284 285 286 287 287 288 288 290 290 290
283 282 282 282 281 281 281 282 282 281 281 282 282 283 283 283 284 284 285 286 287 287 287 287 287 287 288
280 280 281 281 281 281 281 282 281 282 282 282 283 283 282 283 283 284 285 285 285 285 285 285 286 286 286
282 282 283 283 283 284 283 283 283 283 283 283 283 283 283 282 281 282 283 284 284 284 284 283 283 283 285
281 281 281 282 282 282 283 283 282 282 281 282 282 282 282 281 281 282 282 281 282 282 282 282 282 282 283
282 282 282 282 282 282 281 280 280 280 280 281 281 281 281 281 281 281 281 281 280 280 279 279 280 281 281
282 282 282 282 282 281 280 278 278 279 279 278 279 279 279 278 278 279 278 278 278 278 278 279 279 280 281
282 282 282 281 280 279 278 278 277 277 277 277 277 277 277 278 277 277 278 278 278 278 279 279 279 279 279
281 281 281 279 279 279 278 278 277 277 277 277 277 277 277 277 277 277 277 278 278 278 278 279 279 279 279
281 281 280 279 279 278 278 278 277 277 277 277 277 277 277 277 277 277 277 277 278 278 278 279 279 279 279
281 280 279 279 278 278 277 277 277 276 276 276 276 276 276 276 276 277 277 277 278 278 279 279 279 279 279
280 279 278 277 277 277 277 276 276 276 276 276 276 276 275 275 276 276 277 277 277 277 278 278 279 279 279

GFSFLT2_925_thetae_327.txt.gz
Theta_e
283 283 282 282 282 282 282 282 283 283 285 287 288 289 289 290 290 290 290 291 291 292 292 293 293 294 294
282 282 282 282 282 282 282 282 283 283 285 286 287 288 289 289 289 289 290 290 290 291 291 292 292 292 293
281 282 282 282 282 281 282 282 283 283 284 284 286 288 288 288 288 288 287 286 287 289 289 290 290 291 291
281 281 281 281 281 281 282 282 283 283 284 284 284 285 285 286 287 286 285 285 286 287 289 290 290 291 291
281 281 281 281 281 281 281 282 283 282 282 283 284 283 283 284 285 285 284 285 286 287 288 288 289 289 289
281 281 281 281 282 282 282 282 282 281 281 281 282 282 282 283 283 284 285 285 286 287 288 289 289 289 289
283 282 282 282 281 281 281 281 281 281 281 281 283 283 283 282 282 283 284 286 286 287 286 287 286 286 287
280 280 280 280 280 281 281 281 281 283 282 281 282 282 282 281 281 282 283 284 285 285 285 285 285 286 284
282 282 282 283 283 283 283 282 282 283 282 282 282 282 281 281 281 280 282 283 283 284 284 284 284 284 283
280 281 281 281 282 282 282 282 282 281 281 281 281 281 281 280 281 281 281 280 281 282 282 282 282 282 281
281 281 282 282 282 282 282 282 281 280 279 280 280 280 280 280 280 279 279 279 278 278 278 279 279 280 280
282 282 282 282 282 282 282 281 280 278 278 278 278 278 278 278 277 277 277 277 277 277 278 278 279 279 280
282 282 282 282 282 281 281 280 278 278 278 278 277 277 277 277 277 277 277 277 277 277 278 278 278 278 278
281 281 281 281 281 280 279 279 278 278 278 278 277 277 277 277 277 276 276 277 277 277 277 277 277 278 278
279 280 281 281 280 279 279 278 278 277 277 277 277 277 277 276 276 276 276 276 276 276 277 277 277 278 278
279 280 280 280 280 278 278 277 277 277 276 277 276 276 276 275 276 276 276 276 276 277 277 277 277 278 278
280 280 280 280 279 278 277 276 276 276 276 276 276 275 275 275 275 276 276 276 276 276 276 277 277 277 277

GFSFLT2_925_thetae_333.txt.gz
Theta_e
283 283 283 283 282 282 282 282 283 283 285 287 288 289 289 290 291 290 291 291 290 290 291 292 293 293 294
282 282 282 282 282 282 282 282 283 283 285 286 287 288 289 290 290 290 289 288 288 288 289 289 291 292 292
282 281 281 281 281 281 281 282 282 283 283 283 284 286 287 288 288 288 288 287 287 287 288 288 289 290 291
281 281 281 281 281 281 282 282 282 283 283 283 283 284 284 284 284 284 285 285 286 287 287 288 288 289 289
281 281 282 282 282 282 282 282 282 282 281 282 282 282 282 282 283 283 284 285 286 286 287 287 288 289 289
282 282 282 282 282 282 282 282 282 281 281 281 282 283 283 283 283 283 284 284 285 285 286 287 287 288 288
283 283 283 282 282 282 281 281 281 281 281 281 282 283 282 281 281 281 283 284 284 284 284 285 286 286 286
281 281 281 281 281 281 281 281 281 281 281 282 282 282 282 281 281 280 281 283 283 284 284 284 284 284 285
281 282 282 282 282 282 282 281 282 282 282 282 282 282 281 281 280 279 280 281 282 281 281 282 282 283 283
280 280 280 281 281 282 283 283 283 282 281 281 281 281 281 280 280 279 279 279 279 279 280 280 280 280 281
280 280 280 281 281 281 281 281 281 281 281 281 281 281 280 280 279 279 279 278 278 278 278 278 279 279 280
281 281 281 281 281 281 282 281 281 281 281 281 281 280 279 278 278 278 278 278 278 278 278 278 278 278 279
281 281 281 281 281 281 281 281 281 281 281 281 280 279 278 278 278 278 278 278 278 277 278 278 278 278 278
279 280 280 281 281 281 281 281 281 281 281 280 279 278 278 277 277 277 277 277 278 278 277 277 277 277 278
278 278 278 278 279 279 279 280 279 280 280 279 279 278 277 277 277 277 277 277 277 277 277 277 277 277 277
278 278 278 278 278 279 279 279 279 279 279 279 278 277 276 276 276 276 277 277 277 277 277 277 277 277 277
276 277 277 277 278 279 278 278 278 278 278 279 277 275 276 277 276 276 277 277 277 277 277 277 277 277 277

GFSFLT2_925_thetae_339.txt.gz
Theta_e
286 285 285 285 285 284 284 283 285 284 284 287 288 289 290 290 291 291 291 291 290 290 290 291 291 292 293
286 285 285 285 284 283 284 283 284 284 283 284 285 286 288 290 290 290 290 289 289 289 289 289 290 290 291
285 284 284 284 284 284 284 283 284 284 284 284 284 285 286 286 287 288 288 288 288 287 288 288 289 289 290
284 284 284 284 283 284 284 284 285 285 284 284 284 284 283 284 284 284 284 284 286 287 287 287 288 288 289
284 284 284 285 285 284 284 284 284 285 284 284 284 283 284 285 285 284 284 285 286 286 286 287 287 287 287
284 284 284 284 285 284 284 284 284 284 283 283 283 283 283 284 284 283 283 284 285 285 285 285 286 286 286
283 284 284 284 284 284 284 284 284 283 283 282 283 283 284 284 284 284 284 284 284 284 284 285 285 285 285
281 281 282 282 282 283 282 282 282 282 282 282 282 283 284 284 284 284 283 283 283 283 284 283 283 283 283
282 282 282 282 283 282 282 283 283 283 283 283 283 283 283 283 283 283 282 281 282 282 282 282 282 282 282
282 281 282 282 282 282 282 283 283 284 283 284 284 283 283 282 282 282 282 282 282 281 281 281 281 281 281
282 282 282 282 281 281 281 281 282 282 282 282 282 283 282 282 282 281 281 281 280 280 280 280 281 281 281
282 282 282 282 282 282 282 281 281 282 282 282 282 282 282 282 282 282 282 281 280 280 280 280 280 280 281
280 281 281 281 281 281 281 281 281 281 281 281 281 282 282 282 282 281 281 280 280 280 279 279 279 279 279
279 279 279 279 279 280 280 280 281 281 281 281 281 281 282 282 282 281 280 280 280 279 279 279 279 279 279
278 279 279 279 279 279 279 279 279 280 280 280 281 280 280 281 281 280 280 280 280 279 279 279 279 279 279
276 276 277 277 277 278 278 279 279 279 279 280 280 280 280 280 280 279 279 279 279 279 279 279 279 279 279
274 274 275 275 276 276 277 277 278 278 278 279 279 280 280 280 280 279 279 279 278 278 278 278 279 279 279

GFSFLT2_925_thetae_342.txt.gz
Theta_e
286 286 285 285 285 285 284 283 284 284 284 284 286 288 288 291 291 291 291 291 290 291 291 291 291 292 292
285 285 285 285 284 283 283 284 284 284 284 283 284 284 287 289 290 290 290 290 290 290 289 289 290 290 291
285 284 284 284 283 283 284 284 284 284 285 284 285 285 284 285 285 286 285 285 286 287 288 288 288 289 289
284 284 283 284 284 284 284 284 284 285 285 284 284 284 284 285 285 284 284 283 285 287 287 287 287 288 288
284 284 284 284 284 284 284 284 284 284 285 284 284 283 283 283 284 285 285 285 286 286 286 287 287 287 287
284 284 284 285 284 284 284 284 284 284 284 283 283 283 283 283 284 285 284 285 285 285 285 285 285 286 286
283 283 283 283 283 284 284 283 283 283 283 282 282 282 282 283 284 285 285 284 284 284 284 284 285 285 284
281 281 281 281 281 282 282 282 282 282 282 282 283 283 283 283 284 284 284 284 283 283 283 283 284 283 283
282 282 283 283 283 283 283 283 282 282 283 283 283 283 283 283 283 283 283 283 282 283 283 283 283 283 282
281 281 281 281 282 282 282 282 282 282 282 283 283 283 283 283 282 282 282 282 282 282 282 281 282 281 281
282 282 282 282 282 282 281 281 281 281 281 281 282 282 282 282 282 282 282 281 281 281 281 280 280 281 281
280 280 281 281 281 282 282 282 282 281 281 281 281 281 281 281 281 281 281 282 282 281 281 280 280 280 280
279 279 279 279 279 280 279 279 279 279 280 281 281 281 281 281 281 281 281 281 281 281 280 280 279 279 279
279 279 279 279 279 279 279 279 279 279 279 279 279 280 281 281 281 281 281 281 281 280 280 280 279 279 279
277 277 277 277 277 277 277 277 278 278 278 278 278 279 279 280 280 280 280 280 280 280 280 279 279 279 278
275 275 275 275 275 275 275 276 277 277 278 278 278 278 278 279 279 280 280 280 279 279 279 279 279 278 278
274 274 273 273 274 274 274 274 275 276 276 277 277 278 278 278 278 279 279 279 279 279 279 278 278 278 278

GFSFLT2_925_thetae_348.txt.gz
Theta_e
286 286 285 285 285 284 284 284 284 284 286 286 287 287 289 290 291 290 291 291 291 291 290 290 291 291 291
285 285 285 285 284 284 284 284 283 284 286 286 287 287 287 287 287 287 288 287 287 287 288 289 289 290 290
285 285 284 284 283 283 284 284 284 285 284 285 285 286 286 286 286 287 286 286 286 287 288 288 288 288 288
284 284 283 284 284 284 284 284 284 284 284 284 283 284 283 283 283 283 285 286 286 286 287 287 287 287 287
283 283 284 284 284 284 284 284 284 284 284 283 283 283 282 282 282 283 286 286 286 286 286 286 286 286 286
284 284 284 284 284 283 283 283 283 283 282 282 281 282 283 283 283 284 285 286 286 286 285 285 285 285 285
283 283 283 282 281 281 281 281 282 282 282 282 282 282 283 283 283 284 284 285 285 285 285 284 284 284 284
282 282 282 282 282 283 283 283 282 282 281 282 281 281 281 281 281 282 284 284 284 284 284 283 283 283 283
283 283 283 283 283 282 282 281 281 281 281 281 281 281 281 280 281 282 281 282 282 282 283 283 283 283 283
281 281 281 281 281 281 281 281 281 281 281 281 281 281 281 281 281 280 280 280 281 281 281 282 282 282 282
281 281 281 280 280 280 280 281 281 281 281 281 280 280 281 280 280 280 280 280 280 279 279 280 281 282 282
280 279 278 278 279 279 279 280 279 279 279 279 279 279 280 279 279 279 279 278 279 279 279 279 280 280 280
279 278 278 278 278 278 278 278 278 278 278 278 278 277 277 277 277 278 278 278 278 279 279 278 278 278 279
278 278 278 277 277 276 276 275 275 275 275 275 275 275 276 276 276 277 277 278 277 277 277 278 278 278 279
277 277 276 276 275 274 274 274 273 274 274 274 274 274 274 275 275 276 276 277 277 277 278 278 278 278 278
276 276 275 274 273 273 273 273 272 272 272 273 273 273 274 274 275 275 276 276 276 277 277 277 277 278 278
275 275 274 273 272 272 272 272 272 272 272 272 272 273 272 273 274 275 276 275 276 276 276 276 277 276 277